Location: Les Jeannots
(43.2262°N, 5.5774°E)
Time: 18:56:04
(UTC+00:00)

Cosmos 1703 - Pass Details

Date: 05 July 2020
Orbit: 525 x 539 km, 82.5° (Epoch: 12 August)

Event Time Altitude Azimuth Distance (km) Brightness Sun altitude
Exits shadow 20:16:06 - 166° (SSE) 1,968 5.6 -8.8°
Reaches altitude 10° 20:16:37 10° 164° (SSE) 1,761 5.4 -8.9°
Maximum altitude 20:20:17 42° 93° (E) 757 3.7 -9.4°
Drops below altitude 10° 20:23:58 10° 22° (NNE) 1,776 6.2 -9.9°
Sets 20:26:11 0° 16° (NNE) 2,671 7.3 -10.2°
